IRIDIUM 45 [-]

Last updated on Wed Jun 28 2023 00:03:02 GMT+0000 (Coordinated Universal Time)

1 25104U 97082A 23178.32998466 .00011739 00000+0 78372-3 0 9996 2 25104 86.3784 27.8886 0188985 83.9506 278.3221 14.93344966343845

Satellite not in orbit

IRIDIUM 45 [-]